French Village, MO

12:08 PM CST on February 11, 2016 (GMT -0600)
Farmington Regional

Weather History for KFAM - December, 2012

Change the Weather History Date:

Friday, December 14, 2012

  Actual Average (KCGI) Record (KCGI)
Temperature  
Mean Temperature 42 °F 36 °F  
Max Temperature 51 °F 45 °F 68 °F (1971)
Min Temperature 33 °F 27 °F 7 °F (2010)
Degree Days  
Heating Degree Days 23 29  
Month to date heating degree days 379  
Since 1 July heating degree days 1230  
Cooling Degree Days 0 0  
Month to date cooling degree days 0  
Year to date cooling degree days 1453  
Moisture  
Dew Point 28 °F    
Average Humidity 54    
Maximum Humidity 71    
Minimum Humidity 38    
Precipitation  
Precipitation 0.00 in 0.13 in 1.22 in (1987)
Month to date precipitation 2.04  
Year to date precipitation 44.60  
Sea Level Pressure  
Sea Level Pressure 30.16 in    
Wind  
Wind Speed 7 mph (South)    
Max Wind Speed 15 mph    
Max Gust Speed 21 mph    
Visibility 10 miles    
Events      
T = Trace of Precipitation, MM = Missing Value Source: NWS Daily Summary

Daily Weather History Graph

Daily Weather History Graph

Search for Another Location

Airport or City:

Trip Planner

Search our weather history database for the weather conditions in past years. The results will help you decide how hot, cold, wet, or windy it might be!

Date:

Astronomy

Dec. 14, 2012 Rise Set
Actual Time 7:09 AM CST 4:43 PM CST
Civil Twilight 6:40 AM CST 5:13 PM CST
Nautical Twilight 6:07 AM CST 5:46 PM CST
Astronomical Twilight 5:35 AM CST 6:18 PM CST
Moon 8:15 AM CST (12/14) 6:35 PM CST (12/14)
Length of Visible Light 10h 33m
Length of Day
9h 34m
Waxing Crescent, 3% of the Moon is Illuminated
Dec 14
Waxing Crescent
Dec 19
First Quarter
Dec 28
Full
Jan 4
Last Quarter
Jan 11
New

Hourly Weather History & Observations

Time (CST) Temp. Windchill Dew Point Humidity Pressure Visibility Wind Dir Wind Speed Gust Speed Precip Events Conditions
12:15 AM 39.2 °F 37.0 °F 26.6 °F 61% 30.23 in 10.0 mi South 3.5 mph - N/A   Clear
12:35 AM 39.2 °F 35.9 °F 26.6 °F 61% 30.23 in 10.0 mi South 4.6 mph - N/A   Clear
12:55 AM 39.2 °F 35.0 °F 26.6 °F 61% 30.23 in 10.0 mi South 5.8 mph - N/A   Clear
1:15 AM 39.2 °F 35.0 °F 24.8 °F 56% 30.22 in 10.0 mi South 5.8 mph - N/A   Clear
1:35 AM 37.4 °F 33.8 °F 24.8 °F 60% 30.23 in 10.0 mi South 4.6 mph - N/A   Clear
1:55 AM 39.2 °F 37.0 °F 26.6 °F 61% 30.23 in 10.0 mi South 3.5 mph - N/A   Clear
2:15 AM 39.2 °F 35.9 °F 24.8 °F 56% 30.23 in 10.0 mi SSW 4.6 mph - N/A   Clear
2:35 AM 37.4 °F 33.8 °F 23.0 °F 56% 30.24 in 10.0 mi SW 4.6 mph - N/A   Clear
2:55 AM 39.2 °F 33.6 °F 24.8 °F 56% 30.24 in 10.0 mi SW 8.1 mph - N/A   Clear
3:15 AM 37.4 °F 31.4 °F 24.8 °F 60% 30.23 in 10.0 mi SSW 8.1 mph - N/A   Clear
3:35 AM 37.4 °F 32.1 °F 24.8 °F 60% 30.24 in 10.0 mi SW 6.9 mph - N/A   Clear
3:55 AM 37.4 °F 32.8 °F 24.8 °F 60% 30.24 in 10.0 mi SSW 5.8 mph - N/A   Clear
4:15 AM 37.4 °F 33.8 °F 24.8 °F 60% 30.23 in 10.0 mi South 4.6 mph - N/A   Clear
4:35 AM 37.4 °F - 24.8 °F 60% 30.24 in 10.0 mi Calm Calm - N/A   Clear
4:55 AM 37.4 °F - 24.8 °F 60% 30.24 in 10.0 mi Calm Calm - N/A   Clear
5:15 AM 37.4 °F 33.8 °F 24.8 °F 60% 30.24 in 10.0 mi SSE 4.6 mph - N/A   Clear
5:35 AM 37.4 °F 32.8 °F 24.8 °F 60% 30.23 in 10.0 mi SSE 5.8 mph - N/A   Clear
5:55 AM 35.6 °F 32.8 °F 24.8 °F 65% 30.23 in 10.0 mi SE 3.5 mph - N/A   Clear
6:15 AM 35.6 °F 30.7 °F 24.8 °F 65% 30.23 in 10.0 mi SE 5.8 mph - N/A   Clear
6:35 AM 35.6 °F 30.7 °F 24.8 °F 65% 30.22 in 10.0 mi SSE 5.8 mph - N/A   Clear
6:55 AM 35.6 °F 29.9 °F 24.8 °F 65% 30.23 in 10.0 mi SSE 6.9 mph - N/A   Clear
7:15 AM 33.8 °F 28.6 °F 24.8 °F 70% 30.24 in 10.0 mi SSE 5.8 mph - N/A   Clear
7:35 AM 35.6 °F 30.7 °F 24.8 °F 65% 30.25 in 10.0 mi SSE 5.8 mph - N/A   Clear
7:55 AM 35.6 °F 30.7 °F 26.6 °F 70% 30.24 in 10.0 mi SSE 5.8 mph - N/A   Clear
8:15 AM 37.4 °F 34.9 °F 26.6 °F 65% 30.25 in 10.0 mi SE 3.5 mph - N/A   Clear
8:35 AM 39.2 °F 35.0 °F 28.4 °F 65% 30.25 in 10.0 mi SSE 5.8 mph - N/A   Clear
8:55 AM 41.0 °F 38.0 °F 28.4 °F 61% 30.26 in 10.0 mi SSE 4.6 mph - N/A   Clear
9:15 AM 42.8 °F 40.1 °F 28.4 °F 57% 30.26 in 10.0 mi SSE 4.6 mph - N/A   Clear
9:35 AM 44.6 °F 41.4 °F 28.4 °F 53% 30.25 in 10.0 mi SSE 5.8 mph - N/A   Clear
9:55 AM 46.4 °F 42.4 °F 28.4 °F 50% 30.24 in 10.0 mi SSE 8.1 mph - N/A   Clear
10:15 AM 46.4 °F 43.5 °F 28.4 °F 50% 30.24 in 10.0 mi South 5.8 mph - N/A   Clear
10:35 AM 48.2 °F - 28.4 °F 46% 30.24 in 10.0 mi South 11.5 mph - N/A   Clear
10:55 AM 50.0 °F - 28.4 °F 43% 30.23 in 10.0 mi South 10.4 mph - N/A   Clear
11:15 AM 51.8 °F - 28.4 °F 41% 30.22 in 10.0 mi South 11.5 mph - N/A   Clear
11:35 AM 51.8 °F - 28.4 °F 41% 30.21 in 10.0 mi South 11.5 mph - N/A   Clear
11:55 AM 51.8 °F - 26.6 °F 38% 30.20 in 10.0 mi South 12.7 mph - N/A   Clear
12:15 PM 51.8 °F - 26.6 °F 38% 30.20 in 10.0 mi SSW 11.5 mph - N/A   Clear
12:35 PM 51.8 °F - 26.6 °F 38% 30.19 in 10.0 mi South 12.7 mph - N/A   Clear
12:55 PM 51.8 °F - 26.6 °F 38% 30.17 in 10.0 mi South 11.5 mph - N/A   Clear
1:15 PM 51.8 °F - 28.4 °F 41% 30.16 in 10.0 mi South 10.4 mph - N/A   Clear
1:35 PM 51.8 °F - 28.4 °F 41% 30.16 in 10.0 mi South 9.2 mph - N/A   Clear
1:55 PM 50.0 °F - 28.4 °F 43% 30.15 in 10.0 mi South 9.2 mph - N/A   Clear
2:15 PM 48.2 °F - 28.4 °F 46% 30.14 in 10.0 mi SSE 8.1 mph - N/A   Clear
2:35 PM 50.0 °F - 28.4 °F 43% 30.14 in 10.0 mi South 15.0 mph - N/A   Clear
2:55 PM 48.2 °F - 28.4 °F 46% 30.13 in 10.0 mi South 9.2 mph - N/A   Clear
3:15 PM 48.2 °F - 28.4 °F 46% 30.13 in 10.0 mi South 8.1 mph - N/A   Clear
3:35 PM 48.2 °F - 28.4 °F 46% 30.11 in 10.0 mi SSE 6.9 mph - N/A   Clear
3:55 PM 48.2 °F - 28.4 °F 46% 30.11 in 10.0 mi SSE 4.6 mph - N/A   Clear
4:15 PM 48.2 °F - 26.6 °F 43% 30.09 in 10.0 mi SSE 6.9 mph - N/A   Clear
4:35 PM 48.2 °F - 26.6 °F 43% 30.10 in 10.0 mi SSE 9.2 mph - N/A   Clear
4:55 PM 48.2 °F - 24.8 °F 40% 30.09 in 10.0 mi SSE 6.9 mph - N/A   Clear
5:15 PM 48.2 °F - 26.6 °F 43% 30.07 in 10.0 mi SSE 10.4 mph - N/A   Clear
5:35 PM 46.4 °F 41.5 °F 26.6 °F 46% 30.07 in 10.0 mi SSE 10.4 mph - N/A   Clear
5:55 PM 46.4 °F 41.9 °F 26.6 °F 46% 30.08 in 10.0 mi SSE 9.2 mph - N/A   Clear
6:15 PM 46.4 °F 42.4 °F 26.6 °F 46% 30.08 in 10.0 mi South 8.1 mph - N/A   Scattered Clouds
6:35 PM 46.4 °F 41.9 °F 26.6 °F 46% 30.08 in 10.0 mi South 9.2 mph - N/A   Mostly Cloudy
6:55 PM 46.4 °F 41.9 °F 26.6 °F 46% 30.08 in 10.0 mi SSE 9.2 mph - N/A   Mostly Cloudy
7:15 PM 46.4 °F 41.9 °F 28.4 °F 50% 30.08 in 10.0 mi SSE 9.2 mph - N/A   Overcast
7:35 PM 46.4 °F 41.9 °F 30.2 °F 53% 30.08 in 10.0 mi South 9.2 mph - N/A   Overcast
7:55 PM 46.4 °F 41.1 °F 30.2 °F 53% 30.08 in 10.0 mi South 11.5 mph - N/A   Overcast
8:15 PM 46.4 °F 41.5 °F 30.2 °F 53% 30.07 in 10.0 mi SSE 10.4 mph - N/A   Overcast
8:35 PM 46.4 °F 42.9 °F 32.0 °F 57% 30.06 in 10.0 mi South 6.9 mph - N/A   Overcast
8:55 PM 46.4 °F 42.4 °F 32.0 °F 57% 30.05 in 10.0 mi South 8.1 mph - N/A   Overcast
9:15 PM 46.4 °F 41.9 °F 32.0 °F 57% 30.06 in 10.0 mi South 9.2 mph - N/A   Mostly Cloudy
9:35 PM 46.4 °F 41.5 °F 33.8 °F 62% 30.07 in 10.0 mi South 10.4 mph 16.1 mph N/A   Overcast
9:55 PM 46.4 °F 40.1 °F 33.8 °F 62% 30.07 in 10.0 mi South 15.0 mph - N/A   Overcast
10:15 PM 44.6 °F 37.8 °F 35.6 °F 71% 30.06 in 10.0 mi South 15.0 mph 20.7 mph N/A   Overcast
10:35 PM 44.6 °F 38.4 °F 35.6 °F 71% 30.05 in 10.0 mi South 12.7 mph 17.3 mph N/A   Overcast
10:55 PM 44.6 °F 40.2 °F 35.6 °F 71% 30.03 in 10.0 mi South 8.1 mph - N/A   Overcast
11:15 PM 44.6 °F 38.8 °F 35.6 °F 71% 30.01 in 10.0 mi South 11.5 mph - N/A   Overcast
11:35 PM 44.6 °F 38.8 °F 35.6 °F 71% 30.00 in 10.0 mi South 11.5 mph - N/A   Overcast
11:55 PM 44.6 °F 39.2 °F 35.6 °F 71% 29.99 in 10.0 mi South 10.4 mph - N/A   Overcast